Location: Unspecified
(58.9933°N, 5.6375°E)
Time: 12:43:17
(UTC+02:00)

Cosmos 1674 - Visible Passes

Search period start: 24 July 2016 00:00
Search period end: 03 August 2016 00:00
Orbit: 501 x 525 km, 82.5° (Epoch: 22 July)

Date Brightness Start Highest point End Pass type
(mag) Time Alt. Az. Time Alt. Az. Time Alt. Az.
24 Jul 6.2 03:30:59 10° NNE 03:32:08 11° NE 03:33:17 10° ENE visible
28 Jul 4.8 04:01:45 10° N 04:05:09 29° ENE 04:08:30 10° SE visible
29 Jul 5.0 03:45:59 10° N 03:49:13 26° ENE 03:52:26 10° ESE visible
30 Jul 5.2 03:30:13 10° N 03:33:18 23° ENE 03:36:20 10° ESE visible
31 Jul 5.4 03:14:28 10° N 03:17:20 20° ENE 03:20:11 10° ESE visible
01 Aug 5.5 02:58:45 10° NNE 03:01:23 18° ENE 03:04:00 10° E visible
02 Aug 5.5 02:43:03 10° NNE 02:45:25 16° NE 02:47:45 10° E visible
02 Aug 2.7 04:17:53 10° NNW 04:21:43 88° ENE 04:25:29 10° SSE visible
